• MPC Preparation (Info)

  • MPEC 2001-E16 : 2001 EB

    The following Minor Planet Electronic Circular may be linked-to from your own Web pages, but must not otherwise be redistributed electronically.

    A form allowing access to any MPEC is at the bottom of this page.


    Read MPEC 2001-E15 Read MPEC 2001-E17


    M.P.E.C. 2001-E16                                Issued 2001 Mar. 6, 18:06 UT
    
         The Minor Planet Electronic Circulars contain information on unusual
             minor planets and routine data on comets.  They are published
       on behalf of Commission 20 of the International Astronomical Union by the
              Minor Planet Center, Smithsonian Astrophysical Observatory,
                              Cambridge, MA 02138, U.S.A.
    
                 Prepared using the Tamkin Foundation Computer Network
    
                                  MPC@CFA.HARVARD.EDU
              URL http://cfa-www.harvard.edu/iau/mpc.html  ISSN 1523-6714
    
                                        2001 EB
    
    Observations:
         K01E00B* C2001 03 01.46752 16 10 37.11 +25 08 43.9          18.0        704
         K01E00B  C2001 03 01.48143 16 10 36.66 +25 08 29.8          18.5        704
         K01E00B  C2001 03 01.49542 16 10 36.28 +25 08 16.1          18.3        704
         K01E00B  C2001 03 01.50934 16 10 35.99 +25 08 02.3          18.8        704
         K01E00B  C2001 03 02.39312 16 10 15.29 +24 52 53.6          18.4 R      699
         K01E00B  C2001 03 02.41820 16 10 14.55 +24 52 28.3                      699
         K01E00B  C2001 03 02.44332 16 10 13.83 +24 52 03.2                      699
         K01E00B  C2001 03 02.46847 16 10 13.07 +24 51 37.4                      699
         K01E00B  C2001 03 04.39334 16 09 14.82 +24 17 45.7          18.8 R      918
         K01E00B  C2001 03 04.40059 16 09 14.50 +24 17 37.9          18.8 R      918
         K01E00B  C2001 03 04.40571 16 09 14.35 +24 17 32.6          18.7 R      918
         K01E00B  C2001 03 04.46610 16 09 12.09 +24 16 31.1          18.4        704
         K01E00B  C2001 03 04.48058 16 09 11.52 +24 16 15.1          19.1        704
         K01E00B  C2001 03 04.49515 16 09 10.93 +24 15 59.3          18.8        704
         K01E00B  C2001 03 04.50967 16 09 10.34 +24 15 44.1          18.8        704
         K01E00B IC2001 03 04.51684 16 09 10.08 +24 15 38.1                      711
         K01E00B BC2001 03 04.52439 16 09 09.69 +24 15 28.5                      711
         K01E00B  C2001 03 04.52484 16 09 10.51 +24 15 29.6          19.9        608
         K01E00B  C2001 03 04.53553 16 09 10.11 +24 15 18.1          18.8        608
         K01E00B  C2001 03 04.54629 16 09 09.62 +24 15 06.7          18.5        608
    
    Observer details:
    608 Haleakala-NEAT/MSSS.  Observers E. F. Helin, S. Pravdo, K. Lawrence,
        P. Kervin, R. Maeda, M. Skinner.  1.2-m reflector + CCD.
    699 Lowell Observatory-LONEOS.  Observer B. A. Skiff.  Measurer B. W. Koehn.
        0.59-m LONEOS Schmidt + CCD.
    704 Lincoln Laboratory ETS, New Mexico.  Observers M. Blythe, F. Shelly,
        M. Bezpalko, R. Huber, L. Manguso, S. Adams.  Measurers J. Stuart,
        R. Sayer, J. B. Evans, H. Viggh.  1.0-m f/2.15 reflector + CCD.
    711 McDonald Observatory.  Observer J. G. Ries.  0.76-m reflector + CCD.
    918 Badlands Observatory, Quinn.  Observer R. Dyvig.  0.66-m f/4.8 reflector
        + CCD.
    
    Orbital elements:
    2001 EB
    Epoch 2001 Feb. 20.0 TT = JDT 2451960.5                 Spahr
    M  21.63814              (2000.0)            P               Q
    n   0.47295951     Peri.   97.69809     -0.56754900     -0.75916849
    a   1.6314987      Node    34.07023     +0.32634032     -0.56276749
    e   0.2637013      Incl.   34.66964     +0.75590352     -0.32704121
    P   2.08           H   17.4           G   0.15
    From 20 observations 2001 Mar. 1-4.
    
    Ephemeris:
    2001 EB                  a,e,i = 1.63, 0.26, 35                  q = 1.2013
    Date    TT    R. A. (2000) Decl.     Delta      r     Elong.  Phase     V
    2001 03 02    16 10.41   +24 59.7    0.624    1.279   102.4    49.2    18.7
    2001 03 12    16 02.61   +21 49.1    0.562    1.307   111.2    45.1    18.5
    2001 03 22    15 45.99   +17 39.4    0.503    1.337   122.7    38.8    18.1
    2001 04 01    15 19.05   +11 56.3    0.455    1.370   137.6    29.5    17.7
    2001 04 11    14 42.76   +04 25.0    0.430    1.404   155.4    17.3    17.2
    2001 04 21    14 02.20   -04 03.2    0.438    1.440   172.1     5.5    16.8
    2001 05 01    13 25.14   -11 47.6    0.483    1.476   163.2    11.4    17.4
    2001 05 11    12 57.23   -17 47.2    0.558    1.513   148.0    20.7    18.1
    2001 05 21    12 39.57   -22 08.2    0.656    1.550   135.4    27.3    18.7
    2001 05 31    12 30.85   -25 21.8    0.768    1.586   125.2    31.5    19.2
    2001 06 10    12 29.10   -27 55.6    0.890    1.622   116.6    34.0    19.6
    2001 06 20    12 32.60   -30 06.5    1.016    1.658   109.3    35.3    20.0
    2001 06 30    12 40.17   -32 05.1    1.145    1.692   102.9    35.9    20.3
    2001 07 10    12 50.91   -33 57.0    1.274    1.725    97.1    35.8    20.6
    2001 07 20    13 04.26   -35 44.8    1.403    1.757    91.8    35.3    20.8
    2001 07 30    13 19.87   -37 30.1    1.529    1.788    86.8    34.5    21.0
    2001 08 09    13 37.49   -39 12.9    1.653    1.818    82.2    33.5    21.2
    2001 08 19    13 56.97   -40 52.5    1.774    1.846    77.7    32.4    21.3
    2001 08 29    14 18.26   -42 27.9    1.891    1.872    73.4    31.1    21.5
    2001 09 08    14 41.27   -43 57.6    2.003    1.897    69.3    29.8    21.6
    2001 09 18    15 05.98   -45 19.5    2.110    1.920    65.3    28.4    21.7
    2001 09 28    15 32.34   -46 31.7    2.212    1.942    61.3    26.9    21.8
    
    Timothy B. Spahr             (C) Copyright 2001 MPC           M.P.E.C. 2001-E16
    

    Read MPEC 2001-E15 Read MPEC 2001-E17


    MPEC number:

    Enter an MPEC number in one of the following forms:

    • 1997-B01 (the full form)
    • J97B01 (the packed version of the full form)
    • B01 (the abbreviated form)